Location: Newark
(35.2672°N, 80.7344°W)
Time: 14:02:57
(UTC+00:00)

A-11 Canister half - Pass Details

Date: 29 January 2020
Orbit: 1524 x 1684 km, 47.3° (Epoch: 28 February)

Event Time Altitude Azimuth Distance (km) Brightness Sun altitude
Rises 01:13:03 0° 289° (WNW) 4,693 12.5 -29.9°
Reaches altitude 10° 01:16:22 10° 297° (WNW) 3,725 11.7 -30.6°
Maximum altitude 01:25:07 41° 6° (N) 2,163 9.6 -32.4°
Enters shadow 01:26:23 39° 23° (NNE) 2,215 9.6 -32.6°
